Flag for Tanzania Weather past 2 weeks in Arusha, Tanzania

Now
66 °F

Passing clouds.


Feels Like: 66 °F
Forecast: 52 / 76 °F
Wind: 8 mph from Northeast

Location: Kenyatta Airport

Current Time: Sep 21, 2014 at 11:28:43 PM

Latest Report: Sep 21, 2014 at 10:30 PM


Visibility: N/A

Pressure: 30.21 "Hg

Humidity: 64%

Dew point: 54 °F

Location of ArushaLocation

Historic Weather in Arusha — Graph

°F

Arusha temperature yesterday

Maximum temperature yesterday: 84 °F (at 3:30 PM)
Minimum temperature yesterday: 54 °F (at 6:00 AM)
Average temperature yesterday: 68 °F

Past Weeks' High & Low Weather Summary

 TemperatureHumidityPressure
High84 °F (Sep 20, 3:30 PM)100% (Sep 9, 6:00 AM)30.36 "Hg (Sep 9, 6:00 AM)
Low48 °F (Sep 11, 6:00 AM)31% (Sep 20, 4:00 PM)30.07 "Hg (Sep 16, 5:00 PM)
Average66 °F68%30.20 "Hg
* Reported Sep 6 10:00 PM — Sep 21 10:30 PM, Arusha, Weather by CustomWeather, © 2014

Note: Actual official high and low records may vary slightly from our data, if they occured in-between our weather recording intervals... More about our weather records

Advertising

Arusha weather history for previous 24 hours

 ConditionsComfort  
Time TempWeatherWind HumidityBarometerVisibility
10:30 PM
Sep 21
66 °FPassing clouds.8 mph64%30.21 "HgN/A
10:00 PM68 °FPassing clouds.8 mph60%30.21 "HgN/A
9:30 PM68 °FPassing clouds.7 mph60%30.21 "HgN/A
8:30 PM68 °FPassing clouds.9 mph60%30.18 "HgN/A
8:00 PM68 °FPassing clouds.10 mph64%30.18 "HgN/A
7:30 PM70 °FPassing clouds.12 mph60%30.15 "HgN/A
7:00 PM70 °FPassing clouds.14 mph60%30.15 "HgN/A
6:30 PM72 °FPassing clouds.12 mph57%30.12 "HgN/A
6:00 PM73 °FPartly sunny.16 mph53%30.12 "HgN/A
5:00 PM75 °FScattered clouds.8 mph50%30.09 "HgN/A
4:30 PM75 °FScattered clouds.9 mph50%30.09 "HgN/A
4:00 PM77 °FScattered clouds.14 mph51%30.09 "HgN/A
3:00 PM77 °FPartly sunny.6 mph51%30.12 "HgN/A
2:30 PM75 °FScattered clouds.12 mph54%30.15 "HgN/A
2:00 PM73 °FScattered clouds.7 mph57%30.15 "HgN/A
1:30 PM72 °FScattered clouds.10 mph61%30.18 "HgN/A
1:00 PM72 °FScattered clouds.9 mph61%30.18 "HgN/A
12:00 PM68 °FPartly sunny.12 mph64%30.24 "HgN/A
11:00 AM66 °FPartly sunny.8 mph68%30.24 "HgN/A
10:00 AM63 °FPartly sunny.6 mph77%30.27 "HgN/A
9:00 AM61 °FBroken clouds.6 mph83%30.27 "HgN/A
7:00 AM59 °FBroken clouds.3 mph94%30.21 "HgN/A
6:00 AM59 °FPassing clouds.5 mph88%30.18 "HgN/A
5:00 AM57 °FPassing clouds.6 mph88%30.18 "HgN/A
4:00 AM59 °FPassing clouds.No wind88%30.15 "HgN/A
3:00 AM59 °FPassing clouds.3 mph88%30.15 "HgN/A
2:00 AM59 °FPassing clouds.5 mph88%30.15 "HgN/A
1:00 AM63 °FPassing clouds.10 mph77%30.18 "HgN/A
12:00 AM61 °FPassing clouds.7 mph83%30.21 "HgN/A
11:00 PM
Sep 20
63 °FPassing clouds.7 mph73%30.21 "HgN/A
Weather by CustomWeather, © 2014

See weather overviewHow to use our weather pages